20 Jun
2020
20 Jun
'20
8:27 a.m.
CAS-6 V/UHF antenna has been deployed today. Equipment issues still remain, but here is the latest TLE set. See Alan Kung AMSAT-BB message of Jun 20, 2020 at about 10:16 entitled "CAMSAT CAS-6 Status for details.
CAS-6 1 44881U 19093C 20172.43294612 -.00001345 00000-0 -16484-3 0 9991 2 44881 97.9577 248.4654 0015737 31.3898 328.8253 14.81406070 27134
Ray Hoad WA5QGD AMSAT-NA Orbital Elements Manager
1629
Age (days ago)
1629
Last active (days ago)
0 comments
1 participants
participants (1)
-
Ray Hoad